Location: Ottawa
(45.4170°N, 75.7000°W)
Time: 23:01:36
(UTC-04:00)

ISS - Pass Details

Date: 21 May 2021
Orbit: 417 x 422 km, 51.6° (Epoch: 13 June)

Event Time Altitude Azimuth Distance (km) Brightness Sun altitude
Rises 00:44:50 0° 299° (WNW) 2,370 0.5 -24.3°
Reaches altitude 10° 00:46:58 10° 303° (WNW) 1,505 -0.5 -24.3°
Enters shadow 00:48:52 30° 316° (NW) 784 -2.0 -24.3°
